User: anonymous   Login
Location: Oshawa
(43.9000°N, 78.8670°W)
Time: 23:32:01
(UTC-04:00)
Language:

Cosmos 1821 Rocket - Orbit

View from above orbital plane
View from above orbital plane
View from above satellite
View from above satellite

Ground track
Ground track

The orbit data is extracted from the following two-line orbital elements,

1 17526U 87017B   15212.51372530 -.00000053  00000-0 -69139-4 0  9993
2 17526 082.9022 193.3183 0041846 077.3583 040.2887 13.76756555411869
Epoch (UTC): 31 July 2015 12:19:45
Eccentricity: 0.0041846
inclination: 82.9022°
perigee height: 944 km
apogee height: 1006 km
right ascension of ascending node: 193.3183°
argument of perigee: 77.3583°
revolutions per day: 13.76756555
mean anomaly at epoch: 40.2887°
orbit number at epoch: 41186

The dashed part of the orbit path shows where the satellite is in the earth's shadow,  

DLR